Regional Weather Roundup
Issued by NWS

Home | Current Version | Previous Version | Graphics & Text | Print | Product List | Glossary Off
Versions: 1 2 3 4 5 6 7 8 9 10 11 12 13 14 15 16 17 18 19 20 21 22 23 24 25 26 27 28 29 30 31 32 33 34 35 36 37 38 39 40 41 42 43 44 45 46 47 48 49 50

000
ASUS43 KMKX 241400
RWRWI

WISCONSIN REGIONAL WEATHER ROUNDUP
NATIONAL WEATHER SERVICE MILWAUKEE/SULLIVAN WI
800 AM CST FRI FEB 24 2017

NOTE: "FAIR" INDICATES FEW OR NO CLOUDS BELOW 12,000 FEET WITH NO
SIGNIFICANT WEATHER AND/OR OBSTRUCTIONS TO VISIBILITY.

WIZ001-002-006>008-014>016-023>028-241500-
NORTHWEST WISCONSIN

CITY           SKY/WX    TMP DP  RH WIND       PRES   REMARKS
SUPERIOR ARPT  CLOUDY    21  14  73 NE12      29.96S WCI   9
ASHLAND        CLOUDY    22  17  81 NE21G28   29.93S HAZE    WCI   6
HAYWARD        LGT SNOW  24  18  77 NE18G25   29.84S WCI  10
SIREN          CLOUDY    25  19  77 NE15G25   29.86S WCI  12
CUMBERLAND     CLOUDY    27  19  74 N17G23    29.79R WCI  14
RICE LAKE      LGT SNOW  26  24  91 N16G24    29.80F VSB 1   WCI  14
CHETEK         LGT SNOW  27  24  91 N9        29.77F WCI  17
LADYSMITH      LGT SNOW  27  23  87 N16       29.79S WCI  14
EAU CLAIRE     LGT SNOW  27  24  89 NE13      29.74F FOG     WCI  16
MENOMONIE      LGT SNOW  28  25  90 N13       29.77F WCI  17
NEW RICHMOND   CLOUDY    27  19  71 N17       29.82R WCI  14
OSCEOLA        CLOUDY    26  19  74 N10       29.87R WCI  16
$$

WIZ003>005-009-010-017-018-241500-
NORTH CENTRAL WISCONSIN

CITY           SKY/WX    TMP DP  RH WIND       PRES   REMARKS
MANITOWISH WTR SNOW      20  20  98 NE12G21   29.80F VSB 1/2 WCI   8
ARBOR VITAE    LGT SNOW  22  19  89 NE12G20     N/A  VSB 3/4 WCI  11
WOODRUFF       LGT SNOW  22  19  89 NE12G20     N/A  VSB 3/4 WCI  11
RHINELANDER    LGT SNOW  25  21  86 NE7G17    29.76F VSB 1   WCI  17
EAGLE RIVER    SNOW      21  19  93 NE17      29.78F VSB 1/2 WCI   7
LAND O LAKES   SNOW      21  19  92 NE8       29.82F VSB 1/2 WCI  12
PHILLIPS       LGT SNOW  23  20  91 NE14G21   29.77S WCI  10
TOMAHAWK       LGT SNOW  24  21  89 NE10G17   29.76S WCI  13
MEDFORD        MIX PCPN  26  23  88 NE17      29.71S WCI  13
MERRILL        NOT AVBL
$$

WIZ029-030-035-036-043>047-241500-
CENTRAL WISCONSIN

CITY           SKY/WX    TMP DP  RH WIND       PRES   REMARKS
WAUSAU         LGT SNOW  27  23  85 NE16G28   29.69F FOG     WCI  15
MOSINEE        LGT SNOW  27  27 100 NE14G23   29.71F VSB 3/4 WCI  15
MARSHFIELD     FOG       27  24  89 NE18G26   29.67F VSB 1   WCI  14
STEVENS POINT  MIX PCPN  26  25  97 NE14      29.70F WCI  14
WAUPACA        LGT SNOW  30  28  90 N15G21    29.70S WCI  19
WAUTOMA        LGT SNOW  29  26  89 NE18G30     N/A  FOG     WCI  16
WISC RAPIDS    LGT SNOW  29  26  89 NE15G21   29.69S FOG     WCI  18
CAMP DOUGLAS   FRZ DRZL  28  27  93 NE14G26   29.67S FOG     WCI  17
$$

WIZ011>013-019>022-031-037>040-048>050-241500-
NORTHEAST WISCONSIN

CITY           SKY/WX    TMP DP  RH WIND       PRES   REMARKS
ANTIGO         LGT SNOW  25  24  96 NE22      29.72F WCI  10
SHAWANO        LGT SNOW  30  27  86 NE21G28   29.73F WCI  17
OCONTO         CLOUDY    28  26  93 N10G23    29.76F VSB 1/4 WCI  19
STURGEON BAY   SNOW      29  27  92 NE21G30   29.74F VSB 1/2 WCI  16
GREEN BAY      LGT SNOW  30  29  96 NE30G39   29.68F VSB 3/4 WCI  15
MANITOWOC      LGT SNOW  32  28  86 NE13G23   29.67F FOG     WCI  22
APPLETON       LGT SNOW  28  28 100 NE16G29   29.64F VSB 3/4 WCI  17
CLINTONVILLE   LGT SNOW  30  27  86 NE20G26   29.71F VSB 1   WCI  18
OSHKOSH        LGT SNOW  30  28  92 NE21G31   29.64F VSB 1   WCI  17
$$

WIZ032>034-041-042-053>061-241500-
SOUTHWEST WISCONSIN

CITY           SKY/WX    TMP DP  RH WIND       PRES   REMARKS
LA CROSSE      MIX PCPN  31  27  85 N14       29.67F WCI  21
SPARTA         LGT SNOW  29  28  94 NE9       29.68F WCI  21
VIROQUA        CLOUDY    29  27  93 NE22G29   29.59F WCI  16
BOSCOBEL       CLOUDY    32  28  85 NE10G21   29.60F FOG     WCI  24
PRAIRIE DU CHI MIX PCPN  31  30  97 N8        29.60R WCI  23
PLATTEVILLE    CLOUDY    32  32 100 NE16      29.52F WCI  21
$$

WIZ056-057-062-063-064-067-068-241500-
SOUTH CENTRAL WISCONSIN

CITY           SKY/WX    TMP DP  RH WIND       PRES   REMARKS
REEDSBURG      DRIZZLE   29  28  97 NE14G22   29.61F WCI  18
BARABOO/DELLS  MIX PCPN  29  28  94 NE12      29.61S WCI  20
LONE ROCK      CLOUDY    31  28  89 NE17G26   29.59F FOG     WCI  19
MINERAL POINT  CLOUDY    32  32 100 NE8       29.52F FOG     WCI  25
MADISON        DRIZZLE   32  30  92 NE20G29   29.58R FOG     WCI  20
MIDDLETON      CLOUDY    33  33  99 NE12G17   29.58S WCI  24
WATERTOWN      CLOUDY    32  32 100 NE16G22   29.57R FOG     WCI  21
MONROE         CLOUDY    32  32 100 NE22      29.51R FOG     WCI  19
JANESVILLE     NOT AVBL
$$

WIZ051-052-058>065-066-070>072-241500-
SOUTHEAST WISCONSIN

CITY           SKY/WX    TMP DP  RH WIND       PRES   REMARKS
MILWAUKEE      CLOUDY    36  33  89 N13       29.56R WCI  27
WAUKESHA       CLOUDY    30  30 100 NE16G35   29.57F WCI  19
MILWAUKEE/TIMM CLOUDY    34  30  86 NE22      29.57R WCI  22
RACINE         CLOUDY    37  34  89 NE15G28   29.55R WCI  28
KENOSHA        CLOUDY    37  34  89 NE20      29.52S WCI  27
FOND DU LAC    MIX PCPN  32  28  85 NE21      29.63F WCI  20
SHEBOYGAN      LGT SNOW  32  30  92 NE28G38   29.62F FOG     WCI  18
WEST BEND      CLOUDY    32  32 100 NE10      29.59R WCI  24
JUNEAU         MIX PCPN  32  30  93 NE10      29.59R WCI  23
$$

LSZ147-162-241500-
LAKE SUPERIOR

STATION/POSITION TIME  TEMP    WIND        PRES    WAVE
                       AIR SEA DIR/SP/G            HT/PER
                 (UTC) (F)     (DEG/KT/KT) (MB)    (FT/S)
DEVILS ISLAND    1300   21      40/ 23/ 26 1016.4F
PORT WING        1340   24      40/ 23/ 26 1014.2F
SAXON HARBOR     1330   25      40/ 22/ 28 1012.9S
$$

LMZ867-665-643>646-241500-
LAKE MICHIGAN

STATION/POSITION TIME  TEMP    WIND        PRES    WAVE
                       AIR SEA DIR/SP/G            HT/PER
                 (UTC) (F)     (DEG/KT/KT) (MB)    (FT/S)
CHAMBERS ISLAND  1340   28      20/ 30/ 37 1006.4F
NORTHPORT PIER   1340   29     350/ 18/ 21 1011.5R
SISTER BAY       1205   30     100/  9/ 16   N/A
KEWAUNEE LAKESHO 1330   32      50/ 23/ 32 1005.1R
SHEBOYGAN LAKESH 1300   33      30/ 29/ 33 1003.8R
PORT WASHINGTON  1340   33      30/ 16/ 25 1003.4R
MILWAUKEE LAKESH 1330   35      30/ 23/ 25   N/A
KENOSHA   LAKESH 1300   36      30/ 22/ 26  999.7
$$

TC  - TEMPERATURE IN CELSIUS
VSB - VISIBILITY IN STATUTE MILES
WCI - WIND CHILL INDEX
HX  - HEAT INDEX




USA.gov is the U.S. government's official web portal to all federal, state and local government web resources and services.